Satellite-Ground Cal/Val Region Overpasses Predictions

Prediction of Satellite NPP Overpassing Cal/Val Region: PacNW

Region Location: (Latitude: 10.00, Longitude: 139.50) to (Latitude: 22.70, Longitude: 165.60).

Table of predicted overpasses for the next 14.0 days since TLE Epoch: 4/16/2022
Interval Starting Time Starting Location Ending Time Ending Location
1 04/16/2022 02:14:52 ( 12.87, 165.59) 04/16/2022 02:17:39 ( 22.67, 163.24)
2 04/16/2022 03:55:33 ( 10.00, 140.88) 04/16/2022 03:57:13 ( 15.88, 139.51)
3 04/16/2022 14:45:57 ( 22.65, 163.47) 04/16/2022 14:49:32 ( 10.03, 160.47)
4 04/17/2022 03:36:31 ( 10.05, 145.62) 04/17/2022 03:40:06 ( 22.67, 142.62)
5 04/17/2022 14:30:02 ( 11.62, 165.60) 04/17/2022 14:30:29 ( 10.04, 165.23)
6 04/17/2022 16:08:24 ( 22.65, 142.86) 04/17/2022 16:11:59 ( 10.03, 139.86)
7 04/18/2022 03:17:29 ( 10.04, 150.39) 04/18/2022 03:21:04 ( 22.67, 147.38)
8 04/18/2022 15:49:22 ( 22.66, 147.62) 04/18/2022 15:52:57 ( 10.04, 144.62)
9 04/19/2022 02:58:26 ( 10.04, 155.15) 04/19/2022 03:02:01 ( 22.66, 152.14)
10 04/19/2022 15:30:19 ( 22.66, 152.38) 04/19/2022 15:33:54 ( 10.04, 149.38)
11 04/20/2022 02:39:24 ( 10.03, 159.91) 04/20/2022 02:42:59 ( 22.65, 156.91)
12 04/20/2022 15:11:17 ( 22.67, 157.14) 04/20/2022 15:14:52 ( 10.05, 154.14)
13 04/21/2022 02:20:21 ( 10.02, 164.67) 04/21/2022 02:23:56 ( 22.64, 161.67)
14 04/21/2022 14:52:14 ( 22.68, 161.90) 04/21/2022 14:55:49 ( 10.06, 158.90)
15 04/22/2022 03:42:49 ( 10.02, 144.05) 04/22/2022 03:46:24 ( 22.65, 141.05)
16 04/22/2022 14:34:26 ( 18.34, 165.60) 04/22/2022 14:36:48 ( 10.00, 163.65)
17 04/22/2022 16:14:42 ( 22.67, 141.29) 04/22/2022 16:16:47 ( 15.34, 139.51)
18 04/23/2022 03:23:46 ( 10.02, 148.81) 04/23/2022 03:27:21 ( 22.64, 145.81)
19 04/23/2022 15:55:39 ( 22.68, 146.05) 04/23/2022 15:59:14 ( 10.06, 143.05)
20 04/24/2022 03:04:44 ( 10.02, 153.58) 04/24/2022 03:08:20 ( 22.70, 150.56)
21 04/24/2022 15:36:37 ( 22.68, 150.81) 04/24/2022 15:40:13 ( 10.00, 147.79)
22 04/25/2022 02:45:42 ( 10.01, 158.34) 04/25/2022 02:49:18 ( 22.69, 155.32)
23 04/25/2022 15:17:34 ( 22.69, 155.57) 04/25/2022 15:21:10 ( 10.01, 152.56)
24 04/26/2022 02:26:39 ( 10.01, 163.10) 04/26/2022 02:30:15 ( 22.69, 160.08)
25 04/26/2022 14:58:32 ( 22.69, 160.33) 04/26/2022 15:02:08 ( 10.01, 157.32)
26 04/27/2022 02:10:21 ( 19.64, 165.59) 04/27/2022 02:11:13 ( 22.69, 164.84)
27 04/27/2022 03:49:07 ( 10.02, 142.48) 04/27/2022 03:52:40 ( 22.52, 139.51)
28 04/27/2022 14:39:29 ( 22.69, 165.09) 04/27/2022 14:43:05 ( 10.01, 162.08)
29 04/27/2022 16:20:59 ( 22.68, 139.72) 04/27/2022 16:21:13 ( 21.86, 139.51)
30 04/28/2022 03:30:04 ( 10.02, 147.24) 04/28/2022 03:33:40 ( 22.70, 144.22)
31 04/28/2022 16:01:57 ( 22.68, 144.48) 04/28/2022 16:05:33 ( 10.00, 141.46)
32 04/29/2022 03:11:02 ( 10.02, 152.00) 04/29/2022 03:14:38 ( 22.70, 148.98)
